Time,TemperatureF,DewpointF,PressureIn,WindDirection,WindDirectionDegrees,WindSpeedMPH,WindSpeedGustMPH,Humidity,HourlyPrecipIn,Conditions,Clouds,dailyrainin,SoftwareType,DateUTC
2013-02-28 00:01:00,32.0,30.0,29.69,West,278,3.0,8.0,94,0.00,,,0.03,,2013-02-28 05:01:00,
2013-02-28 00:11:00,32.0,30.0,29.69,West,278,3.0,8.0,94,0.00,,,0.03,,2013-02-28 05:11:00,
2013-02-28 00:22:00,31.0,30.0,29.69,West,281,2.0,9.0,95,0.00,,,0.03,,2013-02-28 05:22:00,
2013-02-28 00:31:00,31.0,30.0,29.69,NW,321,3.0,9.0,95,0.00,,,0.03,,2013-02-28 05:31:00,
2013-02-28 00:42:00,31.0,30.0,29.69,NW,321,3.0,9.0,95,0.00,,,0.03,,2013-02-28 05:42:00,
2013-02-28 00:52:00,31.0,30.0,29.68,West,266,5.0,9.0,96,0.00,,,0.03,,2013-02-28 05:52:00,
2013-02-28 01:01:00,31.0,30.0,29.69,WNW,285,5.0,9.0,95,0.00,,,0.03,,2013-02-28 06:01:00,
2013-02-28 01:11:00,31.0,30.0,29.69,WNW,285,5.0,9.0,95,0.00,,,0.03,,2013-02-28 06:11:00,
2013-02-28 01:22:00,31.0,30.0,29.69,WNW,295,5.0,8.0,95,0.00,,,0.03,,2013-02-28 06:22:00,
2013-02-28 01:32:00,31.0,30.0,29.69,NW,305,5.0,10.0,95,0.00,,,0.03,,2013-02-28 06:32:00,
2013-02-28 01:42:00,31.0,30.0,29.69,NW,305,5.0,10.0,95,0.00,,,0.03,,2013-02-28 06:42:00,
2013-02-28 01:52:00,31.0,30.0,29.69,NW,305,4.0,13.0,95,0.00,,,0.03,,2013-02-28 06:52:00,
2013-02-28 02:01:00,31.0,30.0,29.69,NW,309,3.0,12.0,95,0.00,,,0.03,,2013-02-28 07:01:00,
2013-02-28 02:11:00,31.0,30.0,29.69,NW,309,3.0,12.0,95,0.00,,,0.03,,2013-02-28 07:11:00,
2013-02-28 02:21:00,31.0,30.0,29.70,NW,314,5.0,9.0,96,0.00,,,0.02,,2013-02-28 07:21:00,
2013-02-28 02:31:00,31.0,30.0,29.70,NW,326,3.0,9.0,96,0.00,,,0.02,,2013-02-28 07:31:00,
2013-02-28 02:41:00,31.0,30.0,29.70,NW,326,3.0,9.0,96,0.00,,,0.02,,2013-02-28 07:41:00,
2013-02-28 02:52:00,32.0,31.0,29.70,WNW,298,5.0,13.0,96,0.00,,,0.02,,2013-02-28 07:52:00,
2013-02-28 03:01:00,32.0,31.0,29.70,NNW,333,5.0,10.0,95,0.00,,,0.02,,2013-02-28 08:01:00,
2013-02-28 03:11:00,32.0,31.0,29.70,NNW,333,5.0,10.0,95,0.00,,,0.02,,2013-02-28 08:11:00,
2013-02-28 03:22:00,32.0,31.0,29.70,West,274,3.0,10.0,95,0.00,,,0.02,,2013-02-28 08:22:00,
2013-02-28 03:32:00,32.0,31.0,29.70,WNW,290,4.0,10.0,95,0.00,,,0.02,,2013-02-28 08:32:00,
2013-02-28 03:42:00,32.0,31.0,29.70,WNW,290,4.0,10.0,95,0.00,,,0.02,,2013-02-28 08:42:00,
2013-02-28 03:53:00,32.0,31.0,29.70,WNW,293,3.0,9.0,95,0.00,,,0.02,,2013-02-28 08:53:00,
2013-02-28 04:03:00,32.0,31.0,29.70,North,4,6.0,10.0,95,0.00,,,0.02,,2013-02-28 09:03:00,
2013-02-28 04:11:00,32.0,31.0,29.70,North,4,6.0,10.0,95,0.00,,,0.02,,2013-02-28 09:11:00,
2013-02-28 04:22:00,32.0,30.0,29.70,NNW,335,4.0,10.0,94,0.00,,,0.02,,2013-02-28 09:22:00,
2013-02-28 04:32:00,32.0,30.0,29.71,NW,306,5.0,9.0,94,0.00,,,0.02,,2013-02-28 09:32:00,
2013-02-28 04:42:00,32.0,30.0,29.71,NW,306,5.0,9.0,94,0.00,,,0.02,,2013-02-28 09:42:00,
2013-02-28 04:52:00,32.0,30.0,29.71,NNW,330,5.0,10.0,94,0.00,,,0.02,,2013-02-28 09:52:00,
2013-02-28 05:01:00,32.0,30.0,29.72,NNW,331,6.0,11.0,94,0.00,,,0.02,,2013-02-28 10:01:00,
2013-02-28 05:11:00,32.0,30.0,29.72,NW,319,5.0,13.0,93,0.00,,,0.02,,2013-02-28 10:11:00,
2013-02-28 05:22:00,32.0,30.0,29.72,NW,319,5.0,13.0,93,0.00,,,0.02,,2013-02-28 10:22:00,
2013-02-28 05:32:00,32.0,30.0,29.73,WNW,298,4.0,12.0,93,0.00,,,0.02,,2013-02-28 10:32:00,
2013-02-28 05:42:00,32.0,30.0,29.73,WNW,298,4.0,12.0,93,0.00,,,0.02,,2013-02-28 10:42:00,
2013-02-28 05:52:00,32.0,30.0,29.74,North,354,6.0,12.0,93,0.00,,,0.02,,2013-02-28 10:52:00,
2013-02-28 06:01:00,32.0,30.0,29.74,NW,307,6.0,12.0,93,0.00,,,0.02,,2013-02-28 11:01:00,
2013-02-28 06:11:00,32.0,30.0,29.74,NW,307,6.0,12.0,93,0.00,,,0.02,,2013-02-28 11:11:00,
2013-02-28 06:21:00,32.0,30.0,29.75,NW,307,4.0,13.0,93,0.00,,,0.02,,2013-02-28 11:21:00,
2013-02-28 06:32:00,32.0,30.0,29.75,North,349,5.0,12.0,93,0.00,,,0.02,,2013-02-28 11:32:00,
2013-02-28 06:42:00,32.0,30.0,29.75,North,349,5.0,12.0,93,0.00,,,0.02,,2013-02-28 11:42:00,
2013-02-28 06:52:00,33.0,31.0,29.76,NW,312,7.0,13.0,93,0.00,,,0.02,,2013-02-28 11:52:00,
2013-02-28 07:01:00,33.0,31.0,29.76,North,8,5.0,11.0,93,0.00,,,0.02,,2013-02-28 12:01:00,
2013-02-28 07:11:00,33.0,31.0,29.76,North,8,5.0,11.0,93,0.00,,,0.02,,2013-02-28 12:11:00,
2013-02-28 07:21:00,33.0,31.0,29.77,NNW,330,5.0,11.0,93,0.00,,,0.02,,2013-02-28 12:21:00,
2013-02-28 07:32:00,33.0,31.0,29.77,NW,326,7.0,11.0,93,0.00,,,0.02,,2013-02-28 12:32:00,
2013-02-28 07:42:00,33.0,31.0,29.77,NW,326,7.0,11.0,93,0.00,,,0.02,,2013-02-28 12:42:00,
2013-02-28 07:52:00,33.0,31.0,29.78,North,8,6.0,12.0,93,0.00,,,0.02,,2013-02-28 12:52:00,
2013-02-28 08:01:00,33.0,31.0,29.78,NNW,343,5.0,11.0,93,0.00,,,0.02,,2013-02-28 13:01:00,
2013-02-28 08:11:00,33.0,31.0,29.79,NW,326,7.0,11.0,93,0.00,,,0.02,,2013-02-28 13:11:00,
2013-02-28 08:21:00,33.0,31.0,29.79,NW,326,7.0,11.0,93,0.00,,,0.02,,2013-02-28 13:21:00,
2013-02-28 08:32:00,33.0,31.0,29.79,NNW,345,5.0,12.0,93,0.00,,,0.02,,2013-02-28 13:32:00,
2013-02-28 08:42:00,33.0,31.0,29.79,NNW,345,5.0,12.0,93,0.00,,,0.02,,2013-02-28 13:42:00,
2013-02-28 08:52:00,33.0,31.0,29.80,NNW,338,6.0,12.0,93,0.00,,,0.02,,2013-02-28 13:52:00,
2013-02-28 09:01:00,33.0,31.0,29.81,NNW,331,4.0,11.0,93,0.00,,,0.02,,2013-02-28 14:01:00,
2013-02-28 09:11:00,33.0,31.0,29.82,NW,305,6.0,15.0,93,0.00,,,0.02,,2013-02-28 14:11:00,
2013-02-28 09:22:00,33.0,31.0,29.82,NW,305,6.0,15.0,93,0.00,,,0.02,,2013-02-28 14:22:00,
2013-02-28 09:32:00,33.0,31.0,29.82,NNE,32,6.0,14.0,93,0.00,,,0.02,,2013-02-28 14:32:00,
2013-02-28 09:42:00,33.0,31.0,29.83,NW,314,7.0,13.0,93,0.00,,,0.02,,2013-02-28 14:42:00,
2013-02-28 09:52:00,33.0,31.0,29.83,NW,314,7.0,13.0,93,0.00,,,0.02,,2013-02-28 14:52:00,
2013-02-28 10:02:00,33.0,31.0,29.83,NNW,331,6.0,10.0,93,0.00,,,0.02,,2013-02-28 15:02:00,
2013-02-28 10:11:00,33.0,31.0,29.83,NNW,327,8.0,16.0,93,0.00,,,0.01,,2013-02-28 15:11:00,
2013-02-28 10:21:00,33.0,31.0,29.83,NNW,327,8.0,16.0,93,0.00,,,0.01,,2013-02-28 15:21:00,
2013-02-28 10:32:00,33.0,31.0,29.84,NNW,331,6.0,12.0,93,0.00,,,0.01,,2013-02-28 15:32:00,
2013-02-28 10:41:00,33.0,31.0,29.84,NNW,331,6.0,12.0,93,0.00,,,0.01,,2013-02-28 15:41:00,
2013-02-28 10:52:00,34.0,32.0,29.84,NNW,345,6.0,12.0,93,0.00,,,0.01,,2013-02-28 15:52:00,
2013-02-28 11:01:00,34.0,32.0,29.84,NW,309,8.0,13.0,92,0.01,,,0.02,,2013-02-28 16:01:00,
2013-02-28 11:11:00,34.0,32.0,29.85,NW,314,7.0,12.0,92,0.02,,,0.03,,2013-02-28 16:11:00,
2013-02-28 11:22:00,34.0,32.0,29.85,NW,314,7.0,12.0,92,0.02,,,0.03,,2013-02-28 16:22:00,
2013-02-28 11:32:00,35.0,33.0,29.85,NW,326,6.0,12.0,91,0.03,,,0.04,,2013-02-28 16:32:00,
2013-02-28 11:42:00,35.0,33.0,29.85,NW,326,6.0,12.0,91,0.03,,,0.04,,2013-02-28 16:42:00,
2013-02-28 11:52:00,35.0,33.0,29.86,NW,322,6.0,15.0,91,0.03,,,0.04,,2013-02-28 16:52:00,
2013-02-28 12:01:00,35.0,33.0,29.86,North,353,7.0,17.0,91,0.03,,,0.05,,2013-02-28 17:01:00,
2013-02-28 12:11:00,35.0,32.0,29.87,NW,321,6.0,13.0,90,0.02,,,0.05,,2013-02-28 17:11:00,
2013-02-28 12:21:00,35.0,32.0,29.87,NW,321,6.0,13.0,90,0.02,,,0.05,,2013-02-28 17:21:00,
2013-02-28 12:32:00,35.0,32.0,29.88,NNW,347,7.0,14.0,90,0.01,,,0.05,,2013-02-28 17:32:00,
2013-02-28 12:42:00,35.0,32.0,29.88,NNW,347,7.0,14.0,90,0.01,,,0.05,,2013-02-28 17:42:00,
2013-02-28 12:52:00,35.0,32.0,29.87,NW,311,6.0,16.0,89,0.01,,,0.05,,2013-02-28 17:52:00,
2013-02-28 13:02:00,36.0,33.0,29.88,WNW,293,7.0,15.0,89,0.00,,,0.05,,2013-02-28 18:02:00,
2013-02-28 13:11:00,36.0,33.0,29.88,NW,323,8.0,15.0,88,0.00,,,0.04,,2013-02-28 18:11:00,
2013-02-28 13:22:00,36.0,33.0,29.88,NW,323,8.0,15.0,88,0.00,,,0.04,,2013-02-28 18:22:00,
2013-02-28 13:32:00,36.0,33.0,29.88,NW,309,8.0,16.0,88,0.00,,,0.04,,2013-02-28 18:32:00,
2013-02-28 13:42:00,36.0,33.0,29.88,NNE,27,7.0,16.0,88,0.00,,,0.04,,2013-02-28 18:42:00,
2013-02-28 13:52:00,36.0,33.0,29.88,NNE,27,7.0,16.0,88,0.00,,,0.04,,2013-02-28 18:52:00,
2013-02-28 14:01:00,36.0,33.0,29.88,NW,312,7.0,14.0,88,0.00,,,0.04,,2013-02-28 19:01:00,
2013-02-28 14:11:00,37.0,34.0,29.88,NW,321,7.0,13.0,87,0.00,,,0.04,,2013-02-28 19:11:00,
2013-02-28 14:21:00,37.0,34.0,29.88,NW,321,7.0,13.0,87,0.00,,,0.04,,2013-02-28 19:21:00,
2013-02-28 14:32:00,36.0,33.0,29.88,NNW,329,8.0,16.0,87,0.00,,,0.04,,2013-02-28 19:32:00,
2013-02-28 14:41:00,36.0,33.0,29.88,NNW,329,8.0,16.0,87,0.00,,,0.04,,2013-02-28 19:41:00,
2013-02-28 14:52:00,37.0,34.0,29.88,NW,326,7.0,14.0,87,0.00,,,0.04,,2013-02-28 19:52:00,
2013-02-28 15:01:00,37.0,33.0,29.88,North,351,11.0,18.0,86,0.00,,,0.04,,2013-02-28 20:01:00,
2013-02-28 15:12:00,37.0,33.0,29.88,North,351,11.0,18.0,86,0.00,,,0.04,,2013-02-28 20:12:00,
2013-02-28 15:21:00,37.0,33.0,29.88,NNW,332,7.0,14.0,86,0.00,,,0.04,,2013-02-28 20:21:00,
2013-02-28 15:32:00,37.0,33.0,29.89,NNW,330,7.0,16.0,86,0.00,,,0.04,,2013-02-28 20:32:00,
2013-02-28 15:42:00,37.0,33.0,29.89,NNW,330,7.0,16.0,86,0.00,,,0.04,,2013-02-28 20:42:00,
2013-02-28 15:52:00,37.0,33.0,29.90,NNW,328,8.0,15.0,86,0.00,,,0.04,,2013-02-28 20:52:00,
2013-02-28 16:01:00,36.0,33.0,29.90,NNW,328,8.0,19.0,87,0.00,,,0.04,,2013-02-28 21:01:00,
2013-02-28 16:11:00,36.0,33.0,29.90,NNW,328,8.0,19.0,87,0.00,,,0.04,,2013-02-28 21:11:00,
2013-02-28 16:22:00,36.0,33.0,29.91,NW,326,9.0,20.0,87,0.00,,,0.04,,2013-02-28 21:22:00,
2013-02-28 16:32:00,36.0,33.0,29.91,NNW,336,7.0,14.0,87,0.00,,,0.04,,2013-02-28 21:32:00,
2013-02-28 16:41:00,36.0,33.0,29.91,NNW,336,7.0,14.0,87,0.00,,,0.04,,2013-02-28 21:41:00,
2013-02-28 16:52:00,36.0,33.0,29.92,NW,307,9.0,20.0,87,0.00,,,0.04,,2013-02-28 21:52:00,
2013-02-28 17:01:00,36.0,33.0,29.93,NNE,12,8.0,14.0,87,0.00,,,0.04,,2013-02-28 22:01:00,
2013-02-28 17:11:00,36.0,33.0,29.94,NNW,336,12.0,16.0,87,0.00,,,0.04,,2013-02-28 22:11:00,
2013-02-28 17:21:00,36.0,33.0,29.94,NNW,336,12.0,16.0,87,0.00,,,0.04,,2013-02-28 22:21:00,
2013-02-28 17:32:00,36.0,33.0,29.94,NNE,32,8.0,12.0,87,0.00,,,0.04,,2013-02-28 22:32:00,
2013-02-28 17:41:00,36.0,33.0,29.94,NNE,32,8.0,12.0,87,0.00,,,0.04,,2013-02-28 22:41:00,
2013-02-28 17:52:00,35.0,32.0,29.95,North,1,8.0,13.0,87,0.00,,,0.04,,2013-02-28 22:52:00,
2013-02-28 18:01:00,35.0,32.0,29.95,North,360,10.0,18.0,87,0.00,,,0.04,,2013-02-28 23:01:00,
2013-02-28 18:11:00,34.0,31.0,29.96,NNE,25,9.0,15.0,87,0.00,,,0.04,,2013-02-28 23:11:00,
2013-02-28 18:22:00,34.0,31.0,29.96,NNE,25,9.0,15.0,87,0.00,,,0.04,,2013-02-28 23:22:00,
2013-02-28 18:31:00,34.0,31.0,29.97,NNW,342,8.0,17.0,87,0.00,,,0.04,,2013-02-28 23:31:00,
2013-02-28 18:41:00,34.0,31.0,29.97,NNW,342,8.0,17.0,87,0.00,,,0.04,,2013-02-28 23:41:00,
2013-02-28 18:53:00,34.0,31.0,29.98,North,357,7.0,12.0,88,0.00,,,0.04,,2013-02-28 23:53:00,
2013-02-28 19:01:00,33.0,30.0,29.98,North,359,8.0,15.0,88,0.00,,,0.04,,2013-03-01 00:01:00,
2013-02-28 19:11:00,33.0,30.0,29.98,North,359,8.0,15.0,88,0.00,,,0.04,,2013-03-01 00:11:00,
2013-02-28 19:22:00,33.0,30.0,29.98,NNE,20,10.0,16.0,88,0.00,,,0.04,,2013-03-01 00:22:00,
2013-02-28 19:32:00,33.0,30.0,29.99,North,357,8.0,18.0,88,0.00,,,0.04,,2013-03-01 00:32:00,
2013-02-28 19:41:00,33.0,30.0,29.99,North,357,8.0,18.0,88,0.00,,,0.04,,2013-03-01 00:41:00,
2013-02-28 19:52:00,33.0,30.0,30.00,NNE,30,9.0,13.0,88,0.00,,,0.04,,2013-03-01 00:52:00,
2013-02-28 20:01:00,33.0,30.0,30.00,North,1,5.0,10.0,88,0.00,,,0.04,,2013-03-01 01:01:00,
2013-02-28 20:11:00,33.0,30.0,30.00,NE,34,7.0,13.0,88,0.00,,,0.04,,2013-03-01 01:11:00,
2013-02-28 20:21:00,33.0,30.0,30.00,NE,34,7.0,13.0,88,0.00,,,0.04,,2013-03-01 01:21:00,
2013-02-28 20:32:00,33.0,30.0,30.00,NNE,27,5.0,12.0,88,0.00,,,0.04,,2013-03-01 01:32:00,
2013-02-28 20:42:00,33.0,30.0,30.00,NNE,27,5.0,12.0,88,0.00,,,0.04,,2013-03-01 01:42:00,
2013-02-28 20:52:00,33.0,30.0,30.00,North,11,7.0,11.0,88,0.00,,,0.04,,2013-03-01 01:52:00,
2013-02-28 21:01:00,32.0,29.0,30.00,NE,40,8.0,15.0,88,0.00,,,0.04,,2013-03-01 02:01:00,
2013-02-28 21:11:00,32.0,29.0,30.00,NNE,29,8.0,16.0,88,0.00,,,0.04,,2013-03-01 02:11:00,
2013-02-28 21:21:00,32.0,29.0,30.00,NNE,29,8.0,16.0,88,0.00,,,0.04,,2013-03-01 02:21:00,
2013-02-28 21:31:00,32.0,29.0,30.00,NE,38,6.0,15.0,88,0.00,,,0.04,,2013-03-01 02:31:00,
2013-02-28 21:42:00,32.0,29.0,30.00,NE,38,6.0,15.0,88,0.00,,,0.04,,2013-03-01 02:42:00,
2013-02-28 21:52:00,32.0,29.0,30.01,North,357,5.0,10.0,88,0.00,,,0.04,,2013-03-01 02:52:00,
2013-02-28 22:01:00,32.0,29.0,30.01,NNW,345,7.0,11.0,88,0.00,,,0.04,,2013-03-01 03:01:00,
2013-02-28 22:11:00,32.0,29.0,30.01,NNW,329,8.0,10.0,87,0.00,,,0.04,,2013-03-01 03:11:00,
2013-02-28 22:21:00,32.0,29.0,30.01,NNW,329,8.0,10.0,87,0.00,,,0.04,,2013-03-01 03:21:00,
2013-02-28 22:32:00,32.0,29.0,30.01,NE,43,5.0,9.0,87,0.00,,,0.04,,2013-03-01 03:32:00,
2013-02-28 22:42:00,32.0,29.0,30.01,NE,43,5.0,9.0,87,0.00,,,0.04,,2013-03-01 03:42:00,
2013-02-28 22:52:00,32.0,29.0,30.01,North,9,3.0,9.0,87,0.00,,,0.04,,2013-03-01 03:52:00,
2013-02-28 23:01:00,32.0,29.0,30.01,NNW,329,3.0,8.0,87,0.00,,,0.04,,2013-03-01 04:01:00,
2013-02-28 23:11:00,32.0,29.0,30.01,NNW,329,3.0,8.0,87,0.00,,,0.04,,2013-03-01 04:11:00,
2013-02-28 23:21:00,32.0,28.0,30.01,NE,34,3.0,8.0,86,0.00,,,0.04,,2013-03-01 04:21:00,
2013-02-28 23:32:00,32.0,29.0,30.01,NE,34,4.0,7.0,87,0.00,,,0.04,,2013-03-01 04:32:00,
2013-02-28 23:42:00,32.0,29.0,30.01,NE,34,4.0,7.0,87,0.00,,,0.04,,2013-03-01 04:42:00,
2013-02-28 23:52:00,32.0,28.0,30.01,NE,46,4.0,9.0,86,0.00,,,0.04,,2013-03-01 04:52:00,